TimeEDT,TemperatureF,Dew PointF,Humidity,Sea Level PressureIn,VisibilityMPH,Wind Direction,Wind SpeedMPH,Gust SpeedMPH,PrecipitationIn,Events,Conditions,WindDirDegrees,DateUTC
12:51 AM,57.0,44.1,62,30.33,10.0,NNE,9.2,-,N/A,,Mostly Cloudy,30,2013-10-09 04:51:00
1:51 AM,57.0,44.1,62,30.34,10.0,NNE,9.2,-,N/A,,Mostly Cloudy,30,2013-10-09 05:51:00
2:51 AM,55.0,45.0,69,30.34,10.0,NNE,6.9,-,N/A,,Mostly Cloudy,30,2013-10-09 06:51:00
3:51 AM,55.0,44.1,67,30.34,10.0,NNE,6.9,-,N/A,,Mostly Cloudy,20,2013-10-09 07:51:00
4:51 AM,54.0,43.0,66,30.34,10.0,NNE,5.8,-,N/A,,Mostly Cloudy,30,2013-10-09 08:51:00
5:51 AM,53.1,43.0,69,30.35,10.0,NNE,10.4,-,N/A,,Mostly Cloudy,20,2013-10-09 09:51:00
6:51 AM,54.0,44.1,69,30.35,10.0,NNE,10.4,-,N/A,,Mostly Cloudy,30,2013-10-09 10:51:00
7:51 AM,55.0,46.0,72,30.37,10.0,NNE,10.4,-,N/A,,Mostly Cloudy,30,2013-10-09 11:51:00
8:51 AM,57.9,46.9,67,30.40,10.0,NE,13.8,20.7,N/A,,Mostly Cloudy,40,2013-10-09 12:51:00
9:51 AM,59.0,44.1,58,30.40,10.0,NE,17.3,24.2,N/A,,Mostly Cloudy,50,2013-10-09 13:51:00
10:51 AM,60.1,45.0,57,30.39,10.0,ENE,16.1,-,N/A,,Mostly Cloudy,60,2013-10-09 14:51:00
11:51 AM,62.1,46.0,56,30.39,10.0,ENE,16.1,23.0,N/A,,Overcast,70,2013-10-09 15:51:00
12:51 PM,63.0,46.0,54,30.38,10.0,NE,11.5,-,N/A,,Overcast,50,2013-10-09 16:51:00
1:51 PM,64.0,45.0,50,30.36,10.0,NE,9.2,-,N/A,,Overcast,40,2013-10-09 17:51:00
2:51 PM,64.0,46.0,52,30.35,10.0,NE,15.0,19.6,N/A,,Overcast,40,2013-10-09 18:51:00
3:51 PM,64.0,46.0,52,30.35,10.0,NE,12.7,-,N/A,,Overcast,40,2013-10-09 19:51:00
4:51 PM,63.0,45.0,52,30.34,10.0,NE,13.8,-,N/A,,Overcast,40,2013-10-09 20:51:00
5:51 PM,62.1,45.0,53,30.33,10.0,ENE,9.2,-,N/A,,Overcast,60,2013-10-09 21:51:00
6:51 PM,61.0,46.0,58,30.33,10.0,NE,6.9,-,N/A,,Overcast,50,2013-10-09 22:51:00
7:51 PM,59.0,46.9,64,30.32,10.0,ENE,9.2,-,N/A,,Overcast,70,2013-10-09 23:51:00
8:51 PM,59.0,46.9,64,30.32,10.0,ENE,8.1,-,N/A,,Overcast,70,2013-10-10 00:51:00
9:51 PM,57.9,46.0,65,30.31,10.0,ENE,12.7,18.4,N/A,,Overcast,60,2013-10-10 01:51:00
10:51 PM,57.0,46.0,67,30.31,10.0,ENE,6.9,-,N/A,,Overcast,60,2013-10-10 02:51:00
11:51 PM,57.0,46.9,69,30.30,10.0,NE,9.2,-,N/A,,Overcast,50,2013-10-10 03:51:00